This is the latest recevied weather packets stored in our database for station/object SV2RIM-2. If no packets are shown the sender has not sent any weather packets the latest 10 day(s).
| Time | Temp. | Humidity | Pressure | Rain* | Wind** | Luminosity | Snow |
|---|---|---|---|---|---|---|---|
| 1787862619 | 26.67° C | 47% | 1015.6 hPa | - | - | - | - |
| 1787862019 | 26.67° C | 47% | 1015.7 hPa | - | - | - | - |
| 1787861419 | 26.67° C | 47% | 1015.7 hPa | - | - | - | - |
| 1787860819 | 27.22° C | 46% | 1015.7 hPa | - | - | - | - |
| 1787860219 | 27.22° C | 46% | 1015.6 hPa | - | - | - | - |
| 1787859619 | 27.22° C | 45% | 1015.6 hPa | - | - | - | - |
| 1787859019 | 27.22° C | 46% | 1015.6 hPa | - | - | - | - |
| 1787858419 | 27.22° C | 46% | 1015.6 hPa | - | - | - | - |
| 1787857819 | 27.78° C | 45% | 1015.4 hPa | - | - | - | - |
| 1787857219 | 28.33° C | 44% | 1015.4 hPa | - | - | - | - |
| 1787856619 | 28.33° C | 43% | 1015.3 hPa | - | - | - | - |
| 1787856019 | 28.89° C | 42% | 1015.5 hPa | - | - | - | - |
| 1787855419 | 28.89° C | 41% | 1015.4 hPa | - | - | - | - |
| 1787854819 | 29.44° C | 40% | 1015.4 hPa | - | - | - | - |
| 1787854219 | 29.44° C | 38% | 1015.2 hPa | - | - | - | - |
| 1787853619 | 30° C | 36% | 1015.1 hPa | - | - | - | - |
| 1787853019 | 31.11° C | 34% | 1014.9 hPa | - | - | - | - |
| 1787852419 | 32.22° C | 31% | 1014.8 hPa | - | - | - | - |
| 1787851819 | 33.33° C | 30% | 1014.6 hPa | - | - | - | - |
| 1787851219 | 33.33° C | 29% | 1014.5 hPa | - | - | - | - |
| 1787850619 | 33.33° C | 29% | 1014.5 hPa | - | - | - | - |
| 1787850019 | 34.44° C | 29% | 1014.5 hPa | - | - | - | - |
| 1787849419 | 35° C | 28% | 1014.4 hPa | - | - | - | - |
| 1787848819 | 35.56° C | 28% | 1014.4 hPa | - | - | - | - |
| 1787848219 | 36.11° C | 28% | 1014.4 hPa | - | - | - | - |
* Rain since midnight (hover to see other rain measurements)
** Current wind speed in m/s (hover to see current wind gust speed)